Shelton, WA

8:44 AM PDT on August 28, 2016 (GMT -0700)
Sanderson

Weather History for KSHN - August, 2013

Change the Weather History Date:

Sunday, August 11, 2013

  Actual Average Record
Temperature  
Mean Temperature 64 °F -  
Max Temperature 73 °F 80 °F 100 °F (2014)
Min Temperature 54 °F 53 °F 41 °F (2007)
Degree Days  
Heating Degree Days 1    
Growing Degree Days 14 (Base 50)    
Moisture  
Dew Point 53 °F    
Average Humidity 74    
Maximum Humidity 93    
Minimum Humidity 51    
Precipitation  
Precipitation 0.00 in - - ()
Sea Level Pressure  
Sea Level Pressure 30.03 in    
Wind  
Wind Speed 10 mph (WSW)    
Max Wind Speed 15 mph    
Max Gust Speed 20 mph    
Visibility 10 miles    
Events      
Averages and records for this station are not official NWS values.
T = Trace of Precipitation, MM = Missing Value Source: NWS Daily Summary

Daily Weather History Graph

Daily Weather History Graph

Search for Another Location

Airport or City:

Trip Planner

Search our weather history database for the weather conditions in past years. The results will help you decide how hot, cold, wet, or windy it might be!

Date:

Astronomy

Aug. 11, 2013 Rise Set
Actual Time 6:04 AM PDT 8:30 PM PDT
Civil Twilight 5:30 AM PDT 9:03 PM PDT
Nautical Twilight 4:47 AM PDT 9:46 PM PDT
Astronomical Twilight 3:58 AM PDT 10:35 PM PDT
Moon 11:22 AM PDT (8/11) 10:22 PM PDT (8/11)
Length of Visible Light 15h 33m
Length of Day
14h 25m
Waxing Crescent, 23% of the Moon is Illuminated
Aug 11
Waxing Crescent
Aug 14
First Quarter
Aug 20
Full
Aug 28
Last Quarter
Sep 5
New

Hourly Weather History & Observations

Time (PDT) Temp. Dew Point Humidity Pressure Visibility Wind Dir Wind Speed Gust Speed Precip Events Conditions
12:14 AM 57.2 °F 53.6 °F 88% 30.02 in 10.0 mi SW 11.5 mph - N/A   Overcast
12:53 AM 57.0 °F 53.1 °F 87% 30.03 in 10.0 mi SW 12.7 mph - N/A   Overcast
1:53 AM 55.9 °F 53.1 °F 90% 30.02 in 10.0 mi SW 11.5 mph - N/A   Overcast
2:53 AM 55.9 °F 53.1 °F 90% 30.03 in 10.0 mi SW 15.0 mph - N/A   Overcast
3:53 AM 55.9 °F 53.1 °F 90% 30.04 in 10.0 mi SW 8.1 mph - N/A   Overcast
4:53 AM 55.9 °F 53.1 °F 90% 30.04 in 10.0 mi SW 8.1 mph - N/A   Overcast
5:53 AM 55.9 °F 53.1 °F 90% 30.04 in 10.0 mi SSW 9.2 mph - N/A   Overcast
6:53 AM 55.9 °F 52.0 °F 87% 30.04 in 10.0 mi SSW 12.7 mph - N/A   Overcast
7:49 AM 57.2 °F 51.8 °F 82% 30.05 in 10.0 mi WSW 8.1 mph - N/A   Overcast
7:53 AM 55.9 °F 52.0 °F 87% 30.05 in 10.0 mi WSW 8.1 mph - N/A   Overcast
8:53 AM 57.9 °F 53.1 °F 84% 30.06 in 10.0 mi WSW 9.2 mph - N/A   Overcast
9:53 AM 60.1 °F 53.1 °F 78% 30.06 in 10.0 mi SW 6.9 mph - N/A   Overcast
10:21 AM 60.8 °F 53.6 °F 77% 30.06 in 10.0 mi West 5.8 mph - N/A   Overcast
10:53 AM 63.0 °F 53.1 °F 70% 30.05 in 10.0 mi West 6.9 mph - N/A   Mostly Cloudy
11:17 AM 64.4 °F 53.6 °F 68% 30.05 in 10.0 mi Variable 4.6 mph - N/A   Overcast
11:53 AM 66.9 °F 52.0 °F 59% 30.05 in 10.0 mi Variable 4.6 mph - N/A   Overcast
12:53 PM 70.0 °F 52.0 °F 53% 30.04 in 10.0 mi Calm Calm - N/A   Overcast
1:45 PM 71.6 °F 53.6 °F 53% 30.04 in 2.5 mi WNW 9.2 mph 16.1 mph N/A   Haze
1:53 PM 72.0 °F 53.1 °F 51% 30.04 in 10.0 mi West 10.4 mph - N/A   Mostly Cloudy
2:53 PM 71.1 °F 53.1 °F 53% 30.03 in 10.0 mi SSW 8.1 mph - N/A   Clear
3:53 PM 73.0 °F 54.0 °F 51% 30.01 in 10.0 mi SW 12.7 mph - N/A   Clear
4:53 PM 72.0 °F 54.0 °F 53% 30.00 in 10.0 mi WSW 9.2 mph 18.4 mph N/A   Clear
5:53 PM 71.1 °F 55.0 °F 57% 29.99 in 10.0 mi WSW 12.7 mph 19.6 mph N/A   Clear
6:53 PM 69.1 °F 55.0 °F 61% 29.99 in 10.0 mi SW 12.7 mph - N/A   Clear
7:53 PM 66.0 °F 54.0 °F 65% 30.00 in 10.0 mi SW 10.4 mph - N/A   Clear
8:53 PM 62.1 °F 53.1 °F 72% 30.01 in 10.0 mi WSW 12.7 mph - N/A   Clear
9:53 PM 59.0 °F 53.1 °F 81% 30.02 in 10.0 mi WSW 9.2 mph - N/A   Clear
10:53 PM 57.0 °F 52.0 °F 83% 30.02 in 10.0 mi West 10.4 mph - N/A   Clear
11:53 PM 54.0 °F 52.0 °F 93% 30.03 in 10.0 mi WSW 6.9 mph - N/A   Clear